Flag for USA

Past Weather in Red Wing, Minnesota, USA — Yesterday and Last 2 Weeks

Now
84 °F

Sunny.


Feels Like: 90 °F
Forecast: 88 / 69 °F
Wind: No wind

Location: Red Wing Municipal Airport

Current Time: Jul 4, 2020 at 8:43:41 pm

Latest Report: Jul 4, 2020 at 7:55 pm


Visibility: 10 mi

Pressure: 29.96 "Hg

Humidity: 66%

Dew Point: 72 °F

Location of Red WingLocation

Past Weather in Red Wing — Graph

°F

Red Wing Temperature Yesterday

Maximum temperature yesterday: 90 °F (at 1:35 pm)
Minimum temperature yesterday: 64 °F (at 3:36 am)
Average temperature yesterday: 78 °F

High & Low Weather Summary for the Past Weeks

 TemperatureHumidityPressure
High91 °F (Jul 4, 2:36 pm)100% (Jun 20, 11:56 pm)30.10 "Hg (Jun 20, 11:56 pm)
Low52 °F (Jun 24, 3:56 am)29% (Jun 25, 4:15 pm)29.64 "Hg (Jun 28, 7:15 pm)
Average72 °F72%29.88 "Hg
* Reported Jun 19 6:16 pm — Jul 4 6:55 pm, Red Wing. Weather by CustomWeather, © 2020

Note: Actual official high and low records may vary slightly from our data, if they occured in-between our weather recording intervals... More about our weather records

Red Wing Weather History for the Previous 24 Hours

Scroll right to see more
 ConditionsComfort  
Time TempWeatherWind HumidityBarometerVisibility
6:55 pm
Sat, Jul 4
90 °FSunny.No wind33%29.96 "Hg10 mi
6:35 pm90 °FSunny.No wind31%29.95 "Hg10 mi
6:15 pm90 °FSunny.No wind31%29.96 "Hg10 mi
5:55 pm90 °FSunny.No wind33%29.96 "Hg10 mi
5:36 pm90 °FSunny.5 mph33%29.96 "Hg10 mi
5:15 pm90 °FSunny.5 mph33%29.97 "Hg10 mi
4:55 pm91 °FSunny.No wind34%29.98 "Hg10 mi
4:35 pm91 °FSunny.3 mph34%29.99 "Hg10 mi
4:16 pm90 °FSunny.No wind33%29.99 "Hg10 mi
3:55 pm91 °FSunny.5 mph32%29.99 "Hg10 mi
3:35 pm90 °FSunny.3 mph38%30.00 "Hg10 mi
3:16 pm91 °FSunny.No wind36%30.01 "Hg10 mi
2:55 pm91 °FSunny.No wind36%30.01 "Hg10 mi
2:36 pm91 °FSunny.7 mph36%30.01 "Hg10 mi
2:15 pm90 °FScattered clouds.No wind41%30.02 "Hg10 mi
1:56 pm90 °FSunny.No wind46%30.03 "Hg10 mi
1:35 pm90 °FSunny.6 mph46%30.03 "Hg10 mi
12:55 pm88 °FSunny.No wind52%30.04 "Hg10 mi
12:35 pm88 °FSunny.3 mph55%30.04 "Hg10 mi
12:15 pm88 °FSunny.No wind55%30.05 "Hg10 mi
11:55 am86 °FSunny.No wind55%30.06 "Hg10 mi
11:35 am88 °FSunny.5 mph49%30.06 "Hg10 mi
11:16 am86 °FSunny.6 mph52%30.06 "Hg10 mi
10:56 am84 °FSunny.No wind62%30.06 "Hg10 mi
10:36 am84 °FSunny.No wind62%30.06 "Hg10 mi
10:15 am82 °FScattered clouds.No wind66%30.05 "Hg10 mi
9:55 am81 °FSunny.No wind70%30.05 "Hg10 mi
9:36 am81 °FScattered clouds.3 mph70%30.05 "Hg10 mi
9:15 am79 °FScattered clouds.3 mph70%30.05 "Hg10 mi
8:35 am77 °FSunny.No wind74%30.05 "Hg10 mi
8:16 am75 °FSunny.No wind78%30.05 "Hg10 mi
7:35 am72 °FSunny.No wind83%30.05 "Hg10 mi
7:16 am72 °FSunny.No wind83%30.05 "Hg10 mi
6:55 am70 °FSunny.No wind83%30.05 "Hg10 mi
6:36 am66 °FSunny.No wind94%30.05 "Hg10 mi
6:16 am66 °FSunny.3 mph88%30.05 "Hg7 mi
5:56 am64 °FSunny.No wind94%30.05 "Hg7 mi
5:35 am64 °FFog.3 mph94%30.05 "Hg5 mi
5:15 am64 °FClear.No wind94%30.06 "Hg7 mi
4:56 am64 °FClear.No wind94%30.06 "Hg7 mi
4:36 am64 °FPassing clouds.3 mph94%30.06 "Hg7 mi
4:16 am64 °FFog.No wind94%30.05 "Hg5 mi
3:55 am64 °FClear.3 mph94%30.05 "Hg7 mi
3:35 am64 °FClear.No wind94%30.05 "Hg7 mi
3:16 am66 °FPassing clouds.No wind94%30.06 "Hg10 mi
2:55 am66 °FClear.No wind94%30.06 "Hg10 mi
2:35 am66 °FClear.No wind94%30.05 "Hg7 mi
2:16 am66 °FClear.No wind94%30.06 "Hg10 mi
1:56 am68 °FClear.No wind88%30.05 "Hg10 mi
1:35 am66 °FClear.No wind94%30.05 "Hg10 mi
1:15 am66 °FClear.No wind94%30.05 "Hg10 mi
12:56 am66 °FClear.No wind94%30.05 "Hg10 mi
12:35 am68 °FClear.No wind88%30.05 "Hg10 mi
12:16 am70 °FClear.No wind88%30.04 "Hg10 mi
11:55 pm
Fri, Jul 3
70 °FClear.3 mph83%30.04 "Hg10 mi
11:35 pm70 °FClear.No wind88%30.04 "Hg10 mi
11:15 pm72 °FClear.No wind83%30.04 "Hg10 mi
10:56 pm72 °FClear.No wind83%30.05 "Hg10 mi
10:36 pm73 °FClear.No wind78%30.04 "Hg10 mi
10:15 pm72 °FClear.3 mph88%30.04 "Hg10 mi
9:55 pm72 °FClear.No wind88%30.04 "Hg10 mi
9:35 pm73 °FClear.No wind83%30.04 "Hg10 mi
8:55 pm75 °FSunny.No wind89%30.04 "Hg10 mi
8:15 pm81 °FSunny.No wind79%30.04 "Hg10 mi
Weather by CustomWeather, © 2020

See weather overview